Carnival Victory — 3FFL8 — position and weather

sailwx.info

Track history (hours):
 
Tides and Currents Weather Stations Pressure Air Temp Water Temp Dewpoint Dewpoint Depression Visibility Wind Speed Wind Dir Waves Ship Positions

Carnival Victory

Operator: Carnival Cruise Lines

Last reported at 2017-Mar-24 17:33 UTC. Time now 2017-Mar-24 17:52 UTC.
Position N 25°47' W 080°10'.

Type: Ship. MMSI: 355263000.

Date/timePositionNaut miles runAvg speedWind from/ knotsBaromVisibWave heightAir tempDewpointWater temp
2017-Mar-24 17:33N 25°47' W 080°10'0 0.0
2017-Mar-24 16:33N 25°47' W 080°10'0 0.0
2017-Mar-24 15:33N 25°47' W 080°10'0 0.0
2017-Mar-24 14:30N 25°47' W 080°10'0 0.0
2017-Mar-24 13:33N 25°47' W 080°10'0 0.0
2017-Mar-24 12:33N 25°47' W 080°10'0 0.1
2017-Mar-24 11:33N 25°47' W 080°10'4 4.4
2017-Mar-24 10:33N 25°46' W 080°05'6 5.8
2017-Mar-24 09:33N 25°45' W 079°59'9 8.7
2017-Mar-24 08:33N 25°38' W 079°55'1110.8
2017-Mar-24 07:33N 25°27' W 079°54'20910.2
2017-Mar-23 11:00N 23°24' W 083°00'116 2.2 170 / 41019.910.8 22.019.027.4
2017-Mar-21 07:00N 24°24' W 081°12'7813.9 030 / 121021.410.8 22.017.525.0
2017-Mar-21 01:23N 25°10' W 080°03'1113.7
2017-Mar-21 00:33N 25°20' W 079°58'1414.0
2017-Mar-20 23:33N 25°34' W 079°54'1413.7
2017-Mar-20 22:33N 25°45' W 080°03'7 5.9
2017-Mar-20 21:27N 25°47' W 080°10'0 0.0
2017-Mar-20 20:33N 25°47' W 080°10'0 0.0
2017-Mar-20 19:27N 25°47' W 080°10'0 0.0
2017-Mar-20 18:30N 25°47' W 080°10'0 0.0
2017-Mar-20 17:30N 25°47' W 080°10'0 0.0
2017-Mar-20 16:30N 25°47' W 080°10'0 0.0
2017-Mar-20 15:33N 25°47' W 080°10'0 0.0
2017-Mar-20 14:33N 25°47' W 080°10'0 0.0
2017-Mar-20 13:33N 25°47' W 080°10'0 0.0
2017-Mar-20 12:33N 25°47' W 080°10'0 0.0
2017-Mar-20 11:33N 25°47' W 080°10'0 0.0
2017-Mar-20 10:33N 25°47' W 080°10'1 0.9
2017-Mar-20 09:34N 25°46' W 080°09'9 8.5
2017-Mar-20 08:33N 25°48' W 079°60'8 8.4
2017-Mar-20 07:33N 25°53' W 079°52'9 9.0
2017-Mar-20 06:33N 25°57' W 079°44'8 8.5
2017-Mar-20 05:33N 26°02' W 079°36'8 8.2
2017-Mar-20 04:33N 26°06' W 079°28'9 8.6
2017-Mar-20 03:33N 26°11' W 079°20'107 2.6
2017-Mar-18 11:00N 25°30' W 077°30'10712.7 220 / 201023.410.8 19.015.925.5
2017-Mar-18 02:33N 26°05' W 079°22'1413.6
2017-Mar-18 01:34N 25°59' W 079°36'1413.9
2017-Mar-18 00:33N 25°53' W 079°50'1313.2
2017-Mar-17 23:33N 25°46' W 080°02'8 7.7
2017-Mar-17 22:33N 25°47' W 080°11'1 0.7
2017-Mar-17 21:31N 25°47' W 080°10'0 0.0
2017-Mar-17 20:25N 25°47' W 080°10'0 0.0
2017-Mar-17 19:31N 25°47' W 080°10'0 0.0
2017-Mar-17 18:22N 25°47' W 080°10'0 0.0
2017-Mar-17 17:31N 25°47' W 080°10'0 0.0
2017-Mar-17 16:31N 25°47' W 080°10'0 0.0
2017-Mar-17 15:33N 25°47' W 080°10'0 0.0
2017-Mar-17 14:33N 25°47' W 080°10'0 0.0
2017-Mar-17 13:32N 25°47' W 080°10'0 0.0
2017-Mar-17 12:29N 25°47' W 080°10'0 0.0
2017-Mar-17 11:32N 25°47' W 080°10'0 0.0
2017-Mar-17 10:32N 25°47' W 080°10'4 3.7
2017-Mar-17 09:34N 25°46' W 080°06'1111.2
2017-Mar-17 08:33N 25°39' W 079°56'1515.3
2017-Mar-17 07:34N 25°24' W 079°54'47416.8
2017-Mar-16 03:20N 20°44' W 086°50'1418.2
2017-Mar-16 02:34N 20°33' W 086°60'5 4.6
2017-Mar-16 01:32N 20°29' W 086°59'0 0.0
2017-Mar-16 00:32N 20°29' W 086°59'0 0.0
2017-Mar-15 23:32N 20°29' W 086°59'0 0.0
2017-Mar-15 22:32N 20°29' W 086°59'0 0.0
2017-Mar-15 21:32N 20°29' W 086°59'0 0.0
2017-Mar-15 20:29N 20°29' W 086°59'0 0.0
2017-Mar-15 19:29N 20°29' W 086°59'0 0.0
2017-Mar-15 18:29N 20°29' W 086°59'0 0.0
2017-Mar-15 17:33N 20°29' W 086°59'0 0.0
2017-Mar-15 16:32N 20°29' W 086°59'0 0.0
2017-Mar-15 15:34N 20°29' W 086°59'6 6.5
2017-Mar-15 14:34N 20°35' W 086°59'5816.3
2017-Mar-15 11:00N 21°06' W 086°06'6616.4 140 / 61020.410.8 23.020.128.0
2017-Mar-15 07:00N 21°54' W 085°18'   100 / 191018.410.8 23.016.926.0
Track history (hours):
 
Tides and Currents Weather Stations Pressure Air Temp Water Temp Dewpoint Dewpoint Depression Visibility Wind Speed Wind Dir Waves Ship Positions

Carnival Victory

Operator: Carnival Cruise Lines

Last reported at 2017-Mar-24 17:33 UTC. Time now 2017-Mar-24 17:52 UTC.
Position N 25°47' W 080°10'.

Type: Ship. MMSI: 355263000.

Date/timePositionNaut miles runAvg speedWind from/ knotsBaromVisibWave heightAir tempDewpointWater temp
2017-Mar-24 17:33N 25°47' W 080°10'0 0.0
2017-Mar-24 16:33N 25°47' W 080°10'0 0.0
2017-Mar-24 15:33N 25°47' W 080°10'0 0.0
2017-Mar-24 14:30N 25°47' W 080°10'0 0.0
2017-Mar-24 13:33N 25°47' W 080°10'0 0.0
2017-Mar-24 12:33N 25°47' W 080°10'0 0.1
2017-Mar-24 11:33N 25°47' W 080°10'4 4.4
2017-Mar-24 10:33N 25°46' W 080°05'6 5.8
2017-Mar-24 09:33N 25°45' W 079°59'9 8.7
2017-Mar-24 08:33N 25°38' W 079°55'1110.8
2017-Mar-24 07:33N 25°27' W 079°54'20910.2
2017-Mar-23 11:00N 23°24' W 083°00'116 2.2 170 / 41019.910.8 22.019.027.4
2017-Mar-21 07:00N 24°24' W 081°12'7813.9 030 / 121021.410.8 22.017.525.0
2017-Mar-21 01:23N 25°10' W 080°03'1113.7
2017-Mar-21 00:33N 25°20' W 079°58'1414.0
2017-Mar-20 23:33N 25°34' W 079°54'1413.7
2017-Mar-20 22:33N 25°45' W 080°03'7 5.9
2017-Mar-20 21:27N 25°47' W 080°10'0 0.0
2017-Mar-20 20:33N 25°47' W 080°10'0 0.0
2017-Mar-20 19:27N 25°47' W 080°10'0 0.0
2017-Mar-20 18:30N 25°47' W 080°10'0 0.0
2017-Mar-20 17:30N 25°47' W 080°10'0 0.0
2017-Mar-20 16:30N 25°47' W 080°10'0 0.0
2017-Mar-20 15:33N 25°47' W 080°10'0 0.0
2017-Mar-20 14:33N 25°47' W 080°10'0 0.0
2017-Mar-20 13:33N 25°47' W 080°10'0 0.0
2017-Mar-20 12:33N 25°47' W 080°10'0 0.0
2017-Mar-20 11:33N 25°47' W 080°10'0 0.0
2017-Mar-20 10:33N 25°47' W 080°10'1 0.9
2017-Mar-20 09:34N 25°46' W 080°09'9 8.5
2017-Mar-20 08:33N 25°48' W 079°60'8 8.4
2017-Mar-20 07:33N 25°53' W 079°52'9 9.0
2017-Mar-20 06:33N 25°57' W 079°44'8 8.5
2017-Mar-20 05:33N 26°02' W 079°36'8 8.2
2017-Mar-20 04:33N 26°06' W 079°28'9 8.6
2017-Mar-20 03:33N 26°11' W 079°20'107 2.6
2017-Mar-18 11:00N 25°30' W 077°30'10712.7 220 / 201023.410.8 19.015.925.5
2017-Mar-18 02:33N 26°05' W 079°22'1413.6
2017-Mar-18 01:34N 25°59' W 079°36'1413.9
2017-Mar-18 00:33N 25°53' W 079°50'1313.2
2017-Mar-17 23:33N 25°46' W 080°02'8 7.7
2017-Mar-17 22:33N 25°47' W 080°11'1 0.7
2017-Mar-17 21:31N 25°47' W 080°10'0 0.0
2017-Mar-17 20:25N 25°47' W 080°10'0 0.0
2017-Mar-17 19:31N 25°47' W 080°10'0 0.0
2017-Mar-17 18:22N 25°47' W 080°10'0 0.0
2017-Mar-17 17:31N 25°47' W 080°10'0 0.0
2017-Mar-17 16:31N 25°47' W 080°10'0 0.0
2017-Mar-17 15:33N 25°47' W 080°10'0 0.0
2017-Mar-17 14:33N 25°47' W 080°10'0 0.0
2017-Mar-17 13:32N 25°47' W 080°10'0 0.0
2017-Mar-17 12:29N 25°47' W 080°10'0 0.0
2017-Mar-17 11:32N 25°47' W 080°10'0 0.0
2017-Mar-17 10:32N 25°47' W 080°10'4 3.7
2017-Mar-17 09:34N 25°46' W 080°06'1111.2
2017-Mar-17 08:33N 25°39' W 079°56'1515.3
2017-Mar-17 07:34N 25°24' W 079°54'47416.8
2017-Mar-16 03:20N 20°44' W 086°50'1418.2
2017-Mar-16 02:34N 20°33' W 086°60'5 4.6
2017-Mar-16 01:32N 20°29' W 086°59'0 0.0
2017-Mar-16 00:32N 20°29' W 086°59'0 0.0
2017-Mar-15 23:32N 20°29' W 086°59'0 0.0
2017-Mar-15 22:32N 20°29' W 086°59'0 0.0
2017-Mar-15 21:32N 20°29' W 086°59'0 0.0
2017-Mar-15 20:29N 20°29' W 086°59'0 0.0
2017-Mar-15 19:29N 20°29' W 086°59'0 0.0
2017-Mar-15 18:29N 20°29' W 086°59'0 0.0
2017-Mar-15 17:33N 20°29' W 086°59'0 0.0
2017-Mar-15 16:32N 20°29' W 086°59'0 0.0
2017-Mar-15 15:34N 20°29' W 086°59'6 6.5
2017-Mar-15 14:34N 20°35' W 086°59'5816.3
2017-Mar-15 11:00N 21°06' W 086°06'6616.4 140 / 61020.410.8 23.020.128.0
2017-Mar-15 07:00N 21°54' W 085°18'   100 / 191018.410.8 23.016.926.0

Dump ship's entire track history